Wind_Speed
32 33 34 34 35 35 36 37 38 40 41 42 43 44 44 44 45 46 47 47 48 49 49 50 49 49 49 48 49 48 48 48 49 49 49 49 49 50 49 49 49 48 48
31 33 34 34 35 36 37 39 40 41 42 42 43 43 43 44 45 46 46 47 47 48 49 49 49 49 49 49 49 49 49 49 49 49 50 50 50 49 49 48 48 48 48
32 33 34 35 36 37 39 40 41 42 43 43 42 43 44 44 45 46 46 46 46 46 47 48 48 49 49 48 48 48 49 49 50 50 50 50 50 50 49 49 48 49 49
33 34 35 36 38 39 40 41 42 42 43 44 43 44 45 45 45 45 46 46 46 47 47 47 48 48 48 48 48 48 49 50 50 50 50 50 50 50 50 49 49 49 49
34 35 36 38 39 40 40 41 42 43 44 45 45 45 46 46 46 46 46 46 47 47 46 47 47 47 47 48 48 49 50 50 50 50 50 50 50 50 50 49 49 49 48
36 37 37 38 39 40 41 42 43 43 44 45 46 46 46 47 46 46 46 46 47 47 48 48 47 48 49 49 50 50 51 51 50 50 50 49 49 50 50 49 49 49 49
36 37 38 39 40 40 41 42 44 44 45 46 46 46 46 46 47 47 47 48 48 49 49 49 50 50 51 51 51 51 51 51 51 51 50 50 49 49 49 49 49 49 49
37 38 39 40 40 41 41 42 44 44 45 46 46 46 46 46 47 47 47 48 49 49 50 50 51 51 51 52 52 51 51 51 51 51 51 50 49 49 49 49 49 49 48
38 38 39 39 40 40 41 42 43 44 44 45 45 46 46 46 47 47 48 48 49 49 50 50 51 51 51 51 51 51 51 50 50 50 50 49 48 48 48 49 48 48 48
38 39 39 40 40 41 42 42 43 43 44 45 45 46 46 47 47 48 49 49 49 50 50 50 50 50 50 51 51 50 49 49 49 49 49 49 49 48 48 48 48 48 47
38 38 39 40 41 42 42 42 43 44 45 46 46 47 47 48 48 48 49 49 49 49 49 49 49 50 50 51 50 49 49 49 49 48 48 48 48 48 47 47 46 46 46
39 39 40 41 41 42 42 43 43 44 44 45 46 47 47 48 48 49 49 50 50 49 49 49 49 50 50 50 50 49 49 48 48 47 47 46 46 46 46 45 44 44 44
40 40 41 41 42 42 43 43 44 44 45 45 46 46 47 48 48 49 50 50 50 49 49 49 49 49 49 49 48 48 47 47 46 46 45 45 44 44 44 43 43 42 42
41 42 42 43 43 44 44 45 45 46 46 46 47 47 47 48 49 50 51 50 50 49 49 48 48 47 47 47 46 46 45 44 44 43 42 42 42 42 42 42 41 41 41
42 43 43 44 44 45 45 45 46 47 47 48 48 48 49 49 49 50 50 50 50 49 49 48 48 47 46 45 44 44 43 43 42 41 41 40 40 40 40 40 40 40 40
43 43 43 44 44 45 45 45 46 47 48 48 49 49 50 50 51 51 50 50 50 50 50 49 48 47 45 44 44 43 42 41 40 40 40 40 39 39 38 38 38 38 38
43 43 43 44 44 45 45 46 46 47 48 49 50 50 50 51 51 51 51 51 50 50 49 48 47 46 45 44 43 42 41 40 40 39 39 39 38 38 37 37 37 36 36
43 43 44 44 45 45 46 47 48 49 49 49 49 49 50 50 51 51 51 50 49 48 48 47 46 45 44 43 42 41 41 40 39 39 38 38 37 37 36 36 35 35 35
43 44 44 45 46 47 48 49 49 50 50 49 49 49 50 50 50 50 50 49 47 46 45 45 44 42 41 41 40 40 39 39 38 37 37 36 36 35 35 35 34 34 33
44 45 46 47 48 49 49 50 50 50 50 49 49 49 50 49 48 48 47 47 45 44 43 42 41 40 39 39 39 38 38 37 36 36 36 35 34 34 33 33 33 32 32
45 46 48 49 49 50 50 50 49 49 49 49 49 49 48 48 47 46 45 44 43 42 41 40 39 38 38 38 37 36 35 35 35 34 33 33 33 32 32 32 31 31 31
47 48 49 49 49 48 48 48 48 48 48 48 47 46 46 47 46 45 44 43 42 40 39 38 37 36 35 35 34 33 33 33 32 32 32 31 31 31 31 30 30 30 31
48 48 48 48 47 47 47 47 47 47 47 46 46 46 46 46 45 44 43 42 40 39 37 36 35 34 32 32 31 30 30 29 29 29 29 29 29 29 29 29 30 30 30
47 47 47 46 46 46 46 46 46 46 45 45 45 44 44 44 43 42 41 40 39 37 35 34 32 31 29 28 28 28 28 27 27 28 28 28 28 28 27 28 28 28 28
46 46 45 45 45 45 45 45 45 45 45 44 44 43 42 41 40 40 39 37 36 34 32 31 30 28 27 27 27 26 26 25 25 25 25 25 25 25 25 26 26 26 26
45 45 45 45 45 45 44 44 44 43 43 42 42 41 40 40 39 37 36 34 32 31 29 28 27 26 26 26 25 25 24 23 23 23 23 24 24 24 24 24 24 24 24
Wind_Direction
267 268 269 270 272 273 273 274 275 276 278 279 279 281 282 282 283 283 282 282 282 282 282 282 284 284 284 284 283 282 281 281 281 281 281 281 281 280 279 278 277 277 276
269 269 270 271 273 274 274 275 276 278 279 280 281 282 282 283 284 284 284 284 284 284 284 283 284 285 284 283 283 282 281 281 281 281 282 281 281 280 279 278 277 276 276
269 270 270 271 273 275 276 277 278 279 280 280 282 283 283 285 285 286 286 285 285 285 285 285 285 284 284 283 283 283 282 282 282 282 282 282 281 280 279 277 276 276 276
270 271 272 273 275 276 278 279 279 280 281 282 283 285 285 287 287 288 286 286 285 285 285 284 284 285 284 284 284 283 283 283 283 283 282 282 281 280 279 278 277 276 277
271 273 274 276 277 278 279 280 281 282 283 284 284 286 286 287 288 288 286 286 285 285 285 285 285 285 285 285 285 284 284 284 284 283 283 282 282 280 279 278 278 277 277
275 276 278 279 279 280 281 282 283 283 284 285 286 287 287 287 288 288 287 286 286 286 286 285 285 285 285 286 285 285 285 284 284 283 283 283 282 281 279 278 278 277 277
276 278 280 280 281 282 283 284 284 285 285 286 287 287 288 288 288 288 287 287 287 287 286 286 287 286 286 286 285 285 284 284 284 283 283 283 282 280 279 278 278 278 278
278 279 280 281 282 284 285 286 286 286 286 287 288 288 288 288 288 288 287 288 288 288 288 288 287 287 287 286 286 286 285 285 284 283 282 282 281 279 279 279 278 278 279
280 281 282 284 284 285 285 287 287 288 288 289 289 289 289 288 288 288 288 289 289 289 289 289 288 288 288 288 288 287 285 284 283 282 282 281 281 280 279 279 278 279 279
283 283 284 285 286 286 287 287 289 289 290 290 290 290 289 289 288 288 289 290 290 290 289 289 290 290 289 289 288 287 286 284 283 282 281 280 280 279 279 279 280 280 280
284 285 285 287 288 288 288 288 289 290 290 291 290 290 290 290 290 290 290 290 290 290 290 290 290 290 290 289 288 287 286 285 284 283 281 280 280 280 279 280 280 280 280
285 286 287 288 289 289 289 290 291 291 291 292 292 291 291 291 291 291 291 291 291 291 291 290 290 290 289 289 288 287 285 284 284 282 281 280 280 279 279 279 279 279 279
287 288 289 289 289 290 290 291 291 292 292 292 292 292 292 292 292 293 292 293 293 292 291 291 290 290 289 289 288 286 285 284 283 282 281 280 280 280 279 279 278 278 278
288 288 288 289 289 290 291 291 292 292 292 292 292 292 292 293 293 293 293 293 293 293 292 291 291 290 289 289 288 287 286 285 284 283 281 280 280 280 280 279 279 278 278
289 289 288 289 289 290 291 292 292 293 292 292 292 292 292 293 294 295 295 294 293 292 292 292 291 290 288 287 287 286 285 284 284 283 282 282 281 281 281 280 279 279 278
290 290 290 290 290 291 292 292 293 294 294 293 293 293 293 294 294 295 295 294 294 292 293 292 290 288 287 286 284 284 284 284 284 283 282 281 281 280 280 279 279 278 278
290 291 291 291 291 292 292 293 294 295 295 294 294 294 294 295 295 296 296 295 294 293 292 291 290 288 287 285 283 283 283 282 282 282 282 282 281 280 279 279 278 278 277
290 291 291 291 292 293 294 295 295 295 295 294 294 294 295 296 296 297 296 295 294 293 292 291 289 287 285 283 282 282 281 281 280 281 281 281 280 280 279 278 277 277 277
291 291 292 292 293 294 295 295 295 295 295 295 295 295 296 296 297 297 296 295 294 293 292 291 290 287 284 282 282 281 280 279 279 279 279 279 279 279 278 277 276 276 276
291 292 293 294 295 296 296 296 296 295 296 295 295 296 296 296 297 297 297 296 295 294 293 291 289 286 283 282 282 280 279 278 278 278 278 278 278 278 278 277 276 276 276
291 292 294 295 295 296 296 296 296 296 296 296 295 296 297 297 297 297 297 296 295 294 293 291 289 286 285 283 282 280 278 277 277 277 277 277 277 277 276 276 276 275 276
292 293 294 295 295 296 296 296 296 296 296 296 296 296 297 298 298 297 297 296 295 294 292 290 288 287 286 284 282 280 278 276 275 275 276 277 277 276 276 275 275 276 277
293 293 294 295 295 295 296 297 297 297 297 297 298 298 298 298 297 296 295 295 294 292 291 289 288 286 284 282 281 280 279 277 275 275 275 275 275 275 275 276 276 278 279
293 293 294 295 295 296 297 297 297 298 298 298 298 299 299 299 298 296 295 294 292 291 289 288 287 285 283 282 281 280 280 277 275 275 274 274 274 274 275 276 277 278 279
293 293 294 295 296 296 297 297 298 298 298 298 299 299 299 299 298 297 296 294 292 289 286 285 285 283 282 281 281 281 279 277 275 274 274 274 274 274 275 276 277 278 279
293 293 294 295 296 297 297 297 297 298 299 299 299 299 299 298 298 297 296 294 290 287 285 284 283 282 281 281 281 280 278 276 275 274 274 274 275 275 276 278 279 279 280
Height
5709 5709 5708 5708 5707 5707 5706 5705 5704 5703 5702 5700 5698 5697 5694 5692 5690 5688 5685 5683 5680 5678 5675 5673 5671 5668 5665 5662 5660 5657 5655 5653 5651 5649 5646 5643 5641 5639 5637 5635 5633 5631 5630
5701 5701 5700 5700 5699 5698 5697 5695 5694 5693 5691 5689 5688 5685 5683 5681 5678 5676 5673 5671 5668 5665 5663 5660 5658 5655 5652 5649 5647 5645 5642 5639 5637 5635 5632 5629 5627 5624 5622 5621 5619 5617 5616
5694 5692 5692 5690 5689 5688 5687 5685 5684 5682 5680 5678 5676 5674 5672 5669 5666 5664 5661 5658 5655 5653 5650 5647 5644 5642 5639 5636 5633 5631 5628 5626 5623 5621 5618 5615 5612 5610 5608 5606 5605 5603 5601
5685 5684 5683 5681 5680 5678 5677 5675 5673 5671 5669 5667 5665 5662 5660 5657 5654 5651 5649 5646 5643 5640 5637 5634 5631 5628 5625 5623 5620 5617 5614 5611 5609 5606 5603 5600 5598 5595 5593 5592 5590 5589 5587
5676 5675 5673 5672 5670 5668 5666 5664 5662 5660 5658 5655 5653 5651 5648 5645 5642 5638 5636 5633 5630 5627 5624 5621 5618 5615 5612 5609 5607 5604 5600 5597 5594 5591 5589 5586 5583 5581 5579 5577 5575 5573 5572
5667 5665 5664 5662 5660 5658 5656 5653 5651 5648 5646 5644 5641 5638 5635 5632 5629 5626 5623 5620 5617 5614 5611 5608 5605 5602 5599 5596 5593 5589 5586 5583 5580 5577 5574 5571 5569 5566 5564 5562 5560 5559 5557
5657 5655 5653 5651 5649 5647 5644 5642 5639 5637 5634 5632 5629 5626 5623 5620 5616 5613 5610 5607 5604 5601 5598 5595 5591 5588 5585 5582 5578 5575 5571 5568 5565 5562 5559 5556 5554 5551 5549 5547 5545 5544 5542
5647 5645 5643 5640 5638 5636 5633 5630 5628 5625 5622 5619 5616 5613 5610 5607 5604 5600 5597 5594 5591 5587 5584 5580 5577 5573 5570 5566 5563 5560 5557 5553 5550 5547 5544 5542 5539 5536 5534 5532 5530 5529 5527
5636 5634 5632 5629 5627 5624 5622 5619 5616 5613 5610 5607 5603 5600 5597 5594 5590 5587 5584 5581 5577 5573 5569 5566 5562 5559 5555 5551 5548 5545 5542 5538 5534 5532 5529 5526 5524 5522 5519 5517 5516 5514 5512
5625 5623 5621 5618 5616 5613 5610 5607 5604 5601 5597 5594 5591 5587 5584 5581 5577 5573 5570 5566 5563 5559 5555 5551 5547 5543 5540 5535 5532 5529 5526 5523 5520 5517 5514 5512 5509 5507 5505 5503 5501 5499 5497
5615 5612 5609 5607 5604 5601 5598 5594 5591 5588 5585 5582 5578 5575 5571 5567 5563 5559 5555 5552 5548 5544 5540 5537 5533 5529 5525 5521 5517 5514 5511 5508 5505 5502 5500 5497 5495 5492 5490 5488 5486 5485 5483
5604 5601 5598 5595 5592 5589 5585 5582 5579 5575 5572 5568 5564 5561 5557 5553 5549 5545 5541 5537 5533 5529 5526 5522 5518 5514 5510 5506 5502 5499 5496 5493 5490 5487 5485 5483 5480 5478 5476 5474 5472 5470 5469
5592 5589 5586 5583 5579 5576 5573 5570 5566 5562 5559 5555 5551 5547 5543 5539 5535 5531 5526 5522 5518 5514 5511 5507 5503 5499 5495 5491 5488 5484 5481 5478 5475 5473 5471 5468 5466 5464 5462 5460 5458 5457 5455
5580 5577 5574 5570 5567 5564 5560 5557 5553 5549 5545 5541 5538 5534 5530 5525 5521 5516 5512 5507 5503 5499 5496 5492 5488 5484 5481 5477 5474 5470 5467 5464 5462 5459 5457 5455 5453 5451 5449 5447 5445 5444 5442
5568 5565 5561 5558 5554 5551 5547 5543 5540 5536 5531 5527 5524 5519 5516 5512 5507 5502 5497 5492 5488 5484 5480 5477 5474 5470 5467 5463 5460 5456 5454 5451 5449 5446 5444 5442 5440 5438 5436 5435 5433 5431 5430
5556 5552 5549 5545 5541 5538 5534 5531 5526 5522 5517 5513 5508 5504 5500 5496 5492 5487 5482 5477 5473 5469 5465 5462 5459 5455 5452 5449 5446 5443 5440 5438 5436 5434 5432 5430 5428 5426 5424 5423 5421 5419 5418
5543 5540 5536 5532 5529 5525 5521 5517 5513 5509 5504 5498 5494 5489 5485 5481 5476 5472 5467 5462 5458 5453 5450 5446 5443 5440 5437 5434 5432 5430 5428 5425 5423 5421 5419 5418 5416 5414 5412 5411 5409 5408 5407
5530 5527 5523 5520 5516 5512 5507 5503 5499 5494 5490 5485 5480 5475 5470 5466 5461 5456 5451 5447 5443 5438 5434 5431 5428 5425 5422 5420 5418 5416 5414 5413 5411 5409 5407 5406 5404 5403 5401 5400 5399 5397 5396
5517 5514 5510 5506 5502 5498 5493 5489 5484 5480 5475 5471 5466 5461 5456 5451 5446 5441 5436 5431 5428 5424 5420 5416 5413 5410 5408 5406 5405 5403 5401 5400 5399 5397 5396 5394 5393 5391 5390 5389 5388 5387 5386
5504 5500 5496 5492 5488 5483 5479 5474 5470 5465 5460 5456 5452 5447 5442 5437 5432 5427 5422 5417 5413 5410 5406 5403 5400 5397 5395 5393 5392 5390 5389 5388 5387 5385 5384 5383 5382 5381 5380 5379 5378 5377 5376
5491 5487 5483 5478 5474 5469 5464 5459 5455 5450 5446 5441 5437 5432 5426 5422 5417 5413 5408 5404 5400 5396 5393 5390 5387 5385 5383 5381 5379 5378 5377 5376 5375 5374 5373 5372 5371 5370 5369 5369 5368 5367 5366
5477 5473 5468 5464 5459 5455 5450 5445 5441 5436 5431 5426 5422 5417 5412 5408 5403 5399 5395 5391 5387 5383 5380 5378 5375 5373 5371 5369 5368 5366 5365 5365 5364 5363 5363 5362 5361 5360 5359 5359 5358 5357 5356
5463 5458 5454 5450 5445 5441 5436 5431 5426 5422 5417 5412 5408 5403 5399 5394 5390 5386 5382 5378 5375 5371 5368 5366 5364 5362 5360 5358 5357 5356 5355 5354 5354 5353 5353 5352 5352 5351 5350 5349 5348 5347 5346
5449 5445 5441 5436 5432 5427 5423 5418 5413 5408 5404 5399 5394 5390 5386 5381 5377 5373 5369 5366 5363 5360 5357 5355 5353 5351 5350 5349 5347 5346 5345 5344 5344 5343 5343 5343 5342 5342 5341 5340 5339 5338 5337
5435 5431 5427 5423 5418 5414 5409 5405 5400 5395 5391 5386 5382 5378 5373 5369 5365 5361 5357 5354 5351 5348 5346 5344 5343 5342 5340 5339 5338 5337 5336 5335 5335 5334 5334 5334 5333 5333 5332 5331 5330 5329 5328
5421 5417 5413 5409 5405 5401 5396 5392 5387 5383 5378 5374 5369 5365 5361 5357 5353 5349 5346 5343 5340 5338 5336 5335 5334 5333 5332 5331 5330 5329 5328 5327 5327 5326 5326 5326 5325 5325 5324 5323 5322 5321 5320